SCP
0 0 0 0 0 0 0 0 0 0 0 0 0 0 0 0 0 0 0 0 0 0 0 0 0 0 0 0 0 0 0 0 0 0 0 0 0 0
0 0 0 0 0 0 0 0 0 0 0 0 0 0 0 0 0 0 0 0 0 0 0 0 0 0 0 0 0 0 0 0 0 0 0 0 0 0
0 0 0 0 0 0 0 0 0 0 0 0 0 0 0 0 0 0 0 0 0 0 0 0 0 0 0 0 0 0 0 0 0 0 0 0 0 0
0 0 0 0 0 0 0 0 0 0 0 0 0 0 0 0 0 0 0 0 0 0 0 0 0 0 0 0 0 0 0 0 0 0 0 0 0 0
0 0 0 0 0 0 0 0 0 0 0 0 0 0 0 0 0 0 0 0 0 0 0 0 0 0 0 0 0 0 0 0 0 0 0 0 0 0
0 0 0 0 0 0 0 0 0 0 0 0 0 0 0 0 0 0 0 0 0 0 0 0 0 0 0 0 0 0 0 0 0 0 0 0 0 0
0 0 0 0 0 0 0 0 0 0 0 0 0 0 0 0 0 0 0 0 0 0 0 0 0 0 0 0 0 0 0 0 0 0 0 0 0 0
0 0 0 0 0 0 0 0 0 0 0 0 0 0 0 0 0 0 0 0 0 0 0 0 0 0 0 0 0 0 0 0 0 0 0 0 0 0
0 0 0 0 0 0 0 0 0 0 0 0 0 0 0 0 0 0 0 0 0 0 0 0 0 0 0 0 0 0 0 0 0 0 0 0 0 0
0 0 0 0 0 0 0 0 0 0 0 0 0 0 0 0 0 0 0 0 0 0 0 0 0 0 0 0 0 0 0 0 0 0 0 0 0 0
0 0 0 0 0 0 0 0 0 0 0 0 0 0 0 0 0 0 0 0 0 0 0 0 0 0 0 0 0 0 0 0 0 0 0 0 0 0
0 0 0 0 0 0 0 0 0 0 0 0 0 0 0 0 0 0 0 0 0 0 0 0 0 0 0 0 0 0 0 0 0 0 0 0 0 0
0 0 0 0 0 0 0 0 0 0 0 0 0 0 0 0 0 0 0 0 0 0 0 0 0 0 0 0 0 0 0 0 0 0 0 0 0 0
0 0 0 0 0 0 0 0 0 0 0 0 0 0 0 0 0 0 0 0 0 0 0 0 0 0 0 0 0 0 0 0 0 0 0 0 0 0
0 0 0 0 0 0 0 0 0 0 0 0 0 0 0 0 0 0 0 0 0 0 0 0 0 0 0 0 0 0 0 0 0 0 0 0 0 0
0 0 0 0 0 0 0 0 0 0 0 0 0 0 0 0 0 0 0 0 0 0 0 0 0 0 0 0 0 0 0 0 0 0 0 0 0 0
0 0 0 0 0 0 0 0 0 0 0 0 0 0 0 0 0 0 0 0 0 0 0 0 0 0 0 0 0 0 0 0 0 0 0 0 0 0
0 0 0 0 0 0 0 0 0 0 0 0 0 0 0 0 0 0 0 0 0 0 0 0 0 0 0 0 0 0 0 0 0 0 0 0 0 0
0 0 0 0 0 0 0 0 0 0 0 0 0 0 0 0 0 0 0 0 0 0 0 0 0 0 0 0 0 0 0 0 0 0 0 0 0 0
0 0 0 0 0 0 0 0 0 0 0 0 0 0 0 0 0 0 0 0 0 0 0 0 0 0 0 0 0 0 0 0 0 0 0 0 0 0
0 0 0 0 0 0 0 0 0 0 0 0 0 0 0 0 0 0 0 0 0 0 0 0 0 0 0 0 0 0 0 0 0 0 0 0 0 0
0 0 0 0 0 0 0 0 0 0 0 0 0 0 0 0 0 0 0 0 0 0 0 0 0 0 0 0 0 0 0 0 0 0 0 0 0 0
0 0 0 0 0 0 0 0 0 0 0 0 0 0 0 0 0 0 0 0 0 0 0 0 0 0 0 0 0 0 0 0 0 0 0 0 0 0
Wind_Speed
2 2 1 1 1 1 1 2 2 2 3 1 1 1 1 1 2 2 2 4 4 4 4 4 4 5 5 6 6 5 6 5 5 6 7 7 8 8
1 1 1 1 1 1 1 1 2 3 3 1 1 1 1 1 2 2 2 4 4 4 4 4 5 5 5 5 5 5 6 6 6 6 6 7 7 7
1 1 2 1 1 1 1 1 1 2 3 2 1 1 0 1 2 2 1 1 2 4 4 5 5 5 6 5 5 5 5 6 6 6 6 7 7 8
2 2 2 1 2 2 2 2 2 2 2 3 2 1 1 1 1 1 2 2 2 3 4 4 5 5 6 5 5 5 6 5 6 6 6 7 8 8
2 3 3 2 2 2 2 2 2 2 2 2 2 1 1 1 1 2 1 1 2 3 3 4 5 5 5 5 5 5 5 5 6 6 6 6 7 8
2 3 3 3 3 3 2 2 2 2 2 2 2 1 1 1 1 1 2 2 2 2 3 3 4 5 5 5 4 4 5 5 6 6 6 6 7 8
2 2 2 3 3 3 3 2 2 2 2 3 2 2 1 1 2 1 1 2 2 1 2 2 2 2 3 4 3 4 5 5 6 6 6 6 7 8
2 2 2 2 3 4 4 4 4 4 4 3 3 3 4 3 2 2 1 1 2 1 1 3 1 2 2 2 3 4 5 5 5 6 6 7 7 7
3 3 2 2 3 3 3 4 4 5 6 5 5 5 4 4 3 3 3 2 3 1 1 3 2 2 2 3 5 4 4 5 6 6 6 6 6 7
2 3 3 3 3 3 3 3 3 3 4 4 4 4 3 3 3 3 3 2 2 1 1 2 2 2 3 3 4 4 4 5 6 6 6 6 6 7
2 2 3 3 5 5 3 3 3 3 4 4 4 4 4 4 3 2 2 2 2 2 1 1 1 2 2 2 3 4 5 5 6 7 7 6 6 6
2 2 4 5 5 5 4 4 4 3 2 2 2 2 2 3 3 4 4 3 2 2 2 1 1 1 2 2 2 2 3 5 6 7 7 7 6 3
2 2 3 5 5 5 4 3 5 3 2 2 2 2 1 1 2 2 2 4 4 4 3 2 2 2 2 2 2 2 2 2 3 4 6 6 6 4
3 2 3 5 5 5 4 4 3 1 1 1 2 2 2 2 1 1 2 2 3 4 3 3 3 3 2 2 3 2 2 2 2 3 3 5 5 6
3 5 5 6 4 3 3 3 2 2 2 2 2 2 2 1 1 1 0 0 1 2 2 2 3 3 3 3 3 2 2 3 2 2 3 3 3 3
2 2 4 4 3 2 1 2 1 1 2 3 2 1 1 1 1 1 1 1 0 1 1 1 2 3 2 3 3 3 3 3 2 3 3 3 3 2
1 1 0 0 1 1 1 1 1 1 1 1 2 1 1 1 1 1 1 1 1 1 1 1 1 1 2 3 3 4 3 3 3 3 3 4 4 3
2 1 2 2 3 3 2 2 2 2 2 2 2 2 2 2 2 1 1 2 2 2 2 1 0 1 1 2 5 4 3 3 3 2 2 3 5 4
2 2 2 3 3 2 3 3 3 2 2 2 3 3 2 2 2 2 2 2 2 2 2 2 2 2 1 3 3 3 2 3 2 3 3 3 5 5
2 3 3 3 3 3 3 3 2 2 2 2 2 2 2 2 2 3 3 3 2 2 2 2 2 3 3 3 2 3 4 3 3 3 3 3 4 6
3 3 3 3 3 3 3 2 3 3 3 2 3 3 3 3 3 3 3 3 3 3 3 3 2 1 1 1 1 3 2 4 4 3 2 2 3 3
3 3 3 3 3 3 3 3 3 3 3 3 3 3 3 3 4 4 3 3 3 3 2 1 0 0 2 3 3 3 3 3 4 5 5 5 3 3
4 3 3 3 3 3 3 3 4 3 3 3 3 3 3 3 3 3 3 3 2 2 2 1 0 0 1 2 2 3 4 4 3 3 4 5 7 9
Wind_Direction
206 200 194 198 193 225 213 201 202 242 261 245 261 328 335 339 345 331 333 336 343 346 348 349 350 345 340 337 337 336 334 324 326 329 328 328 328 329
195 193 210 219 202 205 211 226 223 221 247 238 242 301 317 331 329 312 308 323 332 337 344 351 347 339 336 333 333 334 332 332 329 330 329 329 331 331
203 200 227 222 211 214 209 212 226 219 242 274 279 305 273 313 320 317 321 322 320 338 341 346 345 343 338 333 330 331 335 337 337 334 333 333 332 333
217 217 231 219 222 223 212 213 217 210 216 249 273 285 270 268 297 319 338 338 321 333 336 337 341 337 338 340 345 340 337 338 338 333 334 335 336 336
220 221 229 214 224 229 229 223 219 217 214 219 257 276 280 281 317 337 342 331 330 327 328 329 334 330 334 339 348 346 349 348 344 342 342 341 340 339
223 221 223 217 222 222 224 228 217 208 204 214 237 256 265 270 263 311 328 336 324 334 332 327 326 331 333 335 339 343 346 348 346 349 347 347 344 341
229 226 227 229 227 224 217 212 208 215 215 216 227 235 242 236 239 254 276 309 307 325 325 317 319 319 320 317 330 341 343 348 347 346 345 343 342 339
224 229 230 233 235 237 229 226 219 215 219 222 228 228 235 236 246 232 240 273 288 298 321 301 302 297 304 296 316 332 339 341 340 338 337 337 337 336
224 224 232 237 235 233 235 242 244 240 230 224 227 233 230 223 217 228 234 250 257 253 302 281 281 281 294 295 307 316 332 337 335 334 331 335 340 339
227 222 221 229 228 227 225 234 242 248 243 232 226 234 234 223 216 222 224 258 269 262 232 256 272 281 302 297 299 312 329 333 333 334 330 332 335 336
236 227 222 228 236 235 225 233 252 266 273 257 249 250 246 241 219 185 191 205 256 253 225 227 256 290 292 282 292 302 315 324 327 328 327 328 331 331
247 243 237 237 238 237 223 220 239 256 262 281 278 278 251 232 220 207 200 205 223 243 214 195 211 261 293 277 291 299 303 312 319 320 320 319 324 321
243 249 251 249 245 243 240 226 237 249 228 231 245 244 236 227 231 231 219 209 214 228 199 171 189 198 218 272 287 284 298 308 310 308 312 311 313 316
239 244 250 254 250 252 253 242 243 236 187 220 238 242 238 237 241 236 228 240 248 237 213 192 201 200 206 246 264 283 295 290 291 295 298 306 307 307
245 245 252 261 260 263 264 259 245 191 189 215 232 244 247 233 237 251 237 217 276 270 237 218 209 203 207 225 244 262 289 283 277 290 295 299 300 300
261 262 263 262 261 263 252 263 237 213 209 217 230 244 251 234 236 225 208 198 311 314 321 287 222 205 220 231 236 253 255 266 291 301 303 299 292 284
246 276 261 230 231 233 243 241 219 203 212 211 203 212 220 233 246 234 213 191 198 229 280 322 346 274 238 225 234 239 245 260 269 286 298 298 289 279
227 209 220 223 227 226 224 229 220 214 209 202 201 204 211 218 236 239 212 195 203 218 229 224 81 23 359 286 225 233 243 255 270 275 272 277 286 285
212 212 223 228 229 224 220 221 227 220 204 204 208 208 208 210 213 223 212 199 209 214 221 206 184 167 216 281 279 230 239 262 266 265 257 252 267 279
213 219 228 229 226 226 225 226 227 215 206 210 212 209 204 203 210 222 216 206 209 212 222 216 201 196 202 227 261 276 263 251 248 262 271 277 277 288
231 231 232 229 228 228 228 224 220 219 217 211 212 209 204 202 215 224 219 204 197 200 218 236 236 213 182 134 257 276 274 261 256 250 264 286 298 303
235 235 236 231 225 222 221 217 217 219 217 218 217 213 209 206 216 222 213 202 205 208 221 246 299 163 171 193 238 266 288 306 307 301 278 251 235 247
239 237 234 229 225 221 217 215 215 218 214 212 214 213 205 207 212 216 212 199 193 201 199 198 182 162 195 207 240 268 279 295 313 320 304 294 288 282